User: anonymous   Login
Location: Unspecified
(0.0000°N, 0.0000°E)
Time: 09:23:00
(UTC+00:00)
Language:

Snapshot - Orbit

View from above orbital plane
View from above orbital plane
View from above satellite
View from above satellite

Ground track
Ground track

The orbit data is extracted from the following two-line orbital elements,

1 01314U 65027A   14330.84671365  .00000195  00000-0  69781-3 0  7256
2 01314 090.2983 259.0555 0031820 131.5718 287.2753 12.91735128 86561
Epoch (UTC): 26 November 2014 20:19:16
Eccentricity: 0.0031820
inclination: 90.2983°
perigee height: 1270 km
apogee height: 1319 km
right ascension of ascending node: 259.0555°
argument of perigee: 131.5718°
revolutions per day: 12.91735128
mean anomaly at epoch: 287.2753°
orbit number at epoch: 8656

The dashed part of the orbit path shows where the satellite is in the earth's shadow,  

DLR